Wind_Speed
21 21 19 18 18 21 21 18 17 17 20 21 20 20 19 18 19 20 20 19 18 18 17 17 17 16 15 12 10 11 10 10 11 11 13 12 11 10 9 10 11 12 13
24 22 23 20 19 20 21 19 17 18 18 17 16 16 16 15 15 17 17 16 17 18 18 18 18 18 17 15 15 13 13 13 13 13 14 15 14 12 11 12 12 13 14
26 24 23 24 23 23 24 21 20 19 19 18 17 16 15 14 14 14 15 15 16 16 17 17 18 18 18 17 16 15 15 16 16 17 15 16 17 15 16 15 16 17 17
28 27 25 25 27 27 26 23 22 21 19 19 19 19 18 16 16 15 17 18 18 17 18 18 19 18 18 18 18 19 19 19 19 19 18 18 18 19 19 20 21 23 25
26 25 27 30 29 30 29 27 26 24 23 23 21 21 21 20 19 19 20 19 19 20 19 19 20 20 20 20 20 21 21 22 22 21 20 19 21 21 21 24 27 28 29
26 27 30 33 32 32 32 33 30 27 26 25 23 24 24 24 22 22 21 20 21 21 21 21 21 22 22 22 23 25 26 26 25 22 22 24 23 24 25 24 26 30 32
33 33 32 33 31 32 33 31 30 29 29 28 27 27 27 26 25 25 24 23 24 24 23 24 25 25 27 26 27 28 28 23 25 25 26 27 28 28 29 29 31 33 33
31 32 35 31 35 29 31 39 36 31 34 32 31 30 30 30 29 28 27 26 27 28 27 28 29 29 29 29 29 30 29 30 28 31 28 27 32 31 32 33 36 38 42
30 30 35 36 33 35 38 35 37 37 33 32 33 32 30 30 30 33 32 30 32 32 31 31 31 30 29 29 31 33 33 36 32 23 26 30 32 35 37 37 39 42 42
33 31 30 32 33 36 37 36 33 32 33 33 32 34 34 33 33 34 35 35 36 34 34 32 33 32 31 30 32 34 37 31 24 24 30 35 38 38 36 38 39 42 40
32 33 33 34 35 32 34 38 39 36 34 35 34 35 35 34 34 34 36 39 40 38 36 36 36 35 34 35 36 34 31 31 31 30 32 34 35 40 39 44 46 43 41
36 34 34 34 36 37 36 36 39 40 38 39 39 38 38 37 37 40 41 40 42 41 42 40 37 37 36 35 35 39 42 41 39 42 45 45 41 46 48 48 44 41 40
36 33 32 31 32 33 36 39 39 38 37 39 37 37 41 42 40 41 41 39 37 38 39 40 40 40 40 41 42 44 44 45 43 45 44 45 44 47 48 41 36 36 38
34 32 32 29 27 27 26 34 38 38 36 38 36 37 38 41 33 39 38 40 39 41 40 43 48 48 49 47 48 45 45 47 47 41 44 44 50 48 35 32 35 37 38
33 32 33 32 28 25 22 25 32 38 39 39 37 33 31 34 38 42 45 48 52 48 47 47 46 48 51 50 50 53 57 58 53 50 48 46 38 32 30 33 37 40 44
29 31 32 33 34 31 29 26 29 29 30 33 36 35 35 37 38 48 46 49 43 38 40 37 41 49 53 51 51 56 54 55 50 39 33 28 28 30 33 37 42 45 48
31 31 31 33 34 33 33 35 34 26 25 27 29 34 34 37 42 45 44 41 40 40 44 44 38 34 35 42 48 45 40 32 22 20 24 29 33 36 39 42 45 47 49
27 28 28 27 27 28 28 28 26 25 25 20 19 20 25 25 25 28 27 28 29 28 33 33 32 34 37 35 30 27 23 22 24 27 31 34 36 38 42 45 46 47 47
26 28 27 29 31 30 28 28 27 28 30 32 31 27 28 25 29 31 32 32 33 31 27 26 28 26 21 20 19 20 23 25 27 30 33 36 38 40 42 43 44 47 50
29 29 31 29 28 29 26 25 28 24 27 28 26 32 33 31 27 21 18 14 13 13 14 15 16 17 18 19 21 22 24 28 30 33 36 36 37 39 42 45 49 52 55
30 31 30 28 27 27 28 29 28 25 23 19 17 16 16 14 12 13 14 15 14 15 16 18 19 19 19 21 23 26 29 31 30 31 33 35 39 44 47 50 53 55 58
26 31 34 32 32 28 29 29 31 30 21 18 16 16 16 14 14 13 13 14 15 17 19 20 21 22 23 24 25 26 27 29 32 35 38 41 44 48 51 54 56 56 54
41 40 34 32 30 27 28 33 26 22 17 15 13 12 11 12 12 13 14 16 18 20 21 20 20 21 22 24 26 28 31 34 37 40 42 45 48 52 54 52 50 51 53
44 38 29 25 20 19 19 16 12 15 17 19 17 15 10 9 14 17 18 18 17 19 20 21 23 24 25 27 29 31 34 37 40 43 46 50 52 50 46 46 48 51 50
29 31 27 21 18 17 15 13 12 7 6 6 9 12 14 15 15 16 17 19 20 22 22 25 25 26 26 29 32 35 39 42 44 47 51 49 44 42 45 46 47 46 40
20 19 19 18 15 15 15 14 12 11 11 11 11 12 13 13 15 17 19 21 21 23 23 23 24 27 29 32 36 39 42 45 48 49 46 41 41 44 44 44 41 33 28
Wind_Direction
220 221 222 221 213 211 211 210 210 216 219 221 227 228 230 233 236 238 240 240 246 244 244 242 246 249 256 254 248 243 247 255 263 279 288 293 299 303 303 297 297 294 286
220 225 230 227 224 224 220 217 213 212 211 209 213 221 222 222 231 236 238 240 241 241 240 244 245 248 251 253 252 251 253 258 265 272 280 289 292 297 296 291 285 286 287
220 221 227 229 225 223 226 224 220 220 215 211 213 218 225 225 228 237 238 239 240 240 241 244 246 246 250 253 259 263 265 267 269 272 277 285 290 292 293 289 288 290 291
225 224 226 228 227 228 224 220 223 224 226 228 228 229 231 234 236 241 246 247 248 244 241 243 249 252 256 256 258 261 263 267 271 272 276 279 280 285 287 291 292 293 298
223 224 235 232 231 232 235 229 221 226 228 228 236 238 236 234 238 237 242 245 247 250 250 251 253 254 254 256 260 263 267 270 272 272 273 276 286 280 285 288 290 293 297
235 236 241 232 233 238 237 241 239 230 233 238 241 241 243 238 238 239 241 244 246 250 252 254 258 261 264 265 264 266 266 264 265 270 276 278 282 282 282 283 290 297 298
236 237 242 241 230 240 240 244 248 249 249 247 244 243 244 246 247 248 249 251 252 252 255 259 261 263 265 268 270 270 268 270 272 270 273 278 279 280 281 285 292 296 298
240 241 230 231 239 237 244 244 241 249 249 246 247 247 248 252 253 253 252 254 257 259 260 263 264 264 270 274 276 270 271 281 282 273 271 277 281 280 285 285 291 296 300
237 243 238 239 244 248 251 250 251 251 238 243 247 251 253 254 255 258 259 257 259 261 262 264 267 270 273 277 279 282 283 285 277 276 271 283 286 283 281 285 292 298 298
226 230 238 238 248 249 246 247 240 242 243 243 247 251 253 254 257 259 260 260 261 263 265 266 269 270 271 272 276 277 282 276 270 277 279 282 286 281 283 289 296 298 293
237 235 231 233 237 243 242 244 241 242 245 245 252 253 252 257 257 259 262 263 262 262 263 263 263 263 263 266 275 274 274 274 272 276 278 283 280 278 287 293 292 290 287
237 245 246 242 242 240 243 240 241 244 247 249 256 253 254 257 255 263 267 265 266 264 261 261 263 264 265 263 271 277 276 274 276 282 288 282 280 281 282 289 287 285 287
243 247 250 244 246 242 242 242 239 241 245 246 247 250 254 259 262 261 262 265 266 269 266 261 263 262 261 262 272 275 274 275 283 284 286 280 276 273 284 279 281 287 289
240 242 250 250 254 252 253 243 239 241 237 240 245 256 260 259 267 263 261 260 265 265 271 269 263 263 261 263 272 269 273 275 277 269 272 266 269 270 269 283 291 293 296
243 245 252 254 257 254 257 257 255 244 245 249 247 247 258 262 267 265 269 265 266 266 271 273 269 264 265 263 270 268 272 273 273 271 270 273 272 275 287 293 297 299 300
246 247 251 254 257 260 261 273 265 256 256 256 254 250 250 258 254 258 270 269 259 262 268 271 269 274 269 269 271 262 265 271 267 265 279 301 302 300 301 301 298 296 297
243 248 251 253 254 258 262 265 264 262 256 250 255 255 238 236 246 257 263 265 266 266 272 274 278 278 280 277 258 260 265 271 278 294 303 302 300 297 297 296 298 300 299
238 241 245 247 244 247 256 259 256 250 247 243 227 208 256 251 247 247 255 263 266 266 267 269 272 273 266 259 257 271 291 309 306 294 291 292 296 299 298 299 300 301 302
231 228 234 237 246 255 255 254 250 237 231 229 246 243 245 227 229 252 261 268 267 265 256 250 253 257 279 294 300 294 292 290 291 293 296 299 300 302 302 303 303 303 303
231 230 236 242 244 249 248 250 248 241 241 244 243 236 244 253 252 251 255 259 267 277 289 289 287 281 282 285 286 286 289 293 296 298 301 302 302 301 302 303 304 306 307
228 230 231 236 234 247 243 240 245 248 236 227 221 219 223 229 237 248 258 268 276 280 282 280 279 280 283 288 294 294 294 296 297 299 301 302 303 304 306 307 308 307 307
215 235 228 231 232 236 222 215 218 214 208 206 210 220 228 240 250 256 265 268 268 269 274 281 286 291 293 293 294 297 300 302 304 305 306 306 306 307 308 308 307 307 307
212 194 228 228 218 230 214 204 182 186 191 200 210 222 234 246 259 266 269 276 282 287 290 292 294 295 297 300 300 301 303 304 305 306 306 307 308 308 306 306 307 307 308
186 208 202 207 201 205 211 210 210 211 217 227 230 241 246 263 269 271 278 281 281 283 288 289 291 295 297 296 298 302 304 305 305 306 307 307 306 305 306 307 309 310 309
184 188 181 181 195 201 205 201 189 173 179 210 241 253 259 266 273 276 277 282 285 287 288 289 290 294 299 303 305 305 305 305 305 305 306 306 305 306 308 310 312 311 310
161 157 155 163 170 176 168 167 183 211 230 238 245 251 256 260 266 276 282 284 286 287 290 294 299 302 303 304 305 306 306 305 305 306 307 307 307 309 311 314 313 311 314
Height
5892 5895 5898 5902 5905 5907 5908 5910 5912 5914 5917 5919 5921 5922 5924 5925 5927 5928 5929 5930 5932 5932 5933 5933 5933 5933 5933 5932 5933 5933 5933 5932 5932 5932 5931 5930 5929 5928 5928 5928 5927 5926 5925
5888 5892 5894 5898 5902 5905 5907 5909 5911 5913 5915 5916 5918 5920 5921 5922 5924 5924 5926 5927 5927 5928 5929 5929 5930 5930 5930 5930 5930 5930 5930 5930 5929 5929 5928 5927 5926 5925 5925 5924 5924 5923 5921
5886 5889 5892 5895 5897 5900 5904 5906 5909 5911 5913 5914 5916 5917 5919 5921 5922 5923 5923 5923 5924 5925 5926 5927 5927 5927 5927 5928 5927 5928 5928 5927 5926 5926 5925 5924 5923 5922 5920 5920 5919 5918 5916
5884 5886 5889 5892 5894 5896 5898 5902 5905 5908 5910 5911 5913 5915 5916 5918 5919 5920 5921 5921 5922 5922 5923 5923 5924 5924 5924 5924 5924 5924 5924 5924 5923 5922 5921 5920 5919 5917 5916 5915 5913 5911 5909
5880 5883 5886 5886 5889 5892 5895 5897 5899 5903 5905 5908 5910 5912 5913 5914 5914 5915 5916 5917 5918 5919 5919 5919 5920 5920 5920 5921 5922 5922 5921 5920 5919 5917 5916 5915 5914 5913 5911 5910 5908 5906 5904
5874 5878 5879 5882 5884 5887 5890 5893 5896 5897 5900 5902 5904 5907 5909 5910 5911 5912 5912 5912 5913 5914 5915 5915 5915 5915 5915 5916 5916 5915 5915 5914 5913 5911 5910 5910 5909 5908 5906 5904 5903 5900 5898
5869 5871 5873 5876 5879 5882 5884 5887 5890 5893 5895 5898 5899 5900 5902 5904 5906 5906 5907 5908 5908 5908 5909 5909 5909 5909 5908 5909 5908 5908 5908 5907 5906 5905 5905 5904 5903 5902 5900 5898 5896 5893 5890
5862 5864 5867 5870 5873 5876 5879 5882 5884 5885 5888 5892 5894 5895 5897 5899 5900 5900 5901 5903 5903 5903 5903 5903 5903 5903 5903 5902 5901 5900 5900 5899 5898 5897 5897 5896 5895 5894 5892 5890 5887 5885 5881
5854 5856 5859 5864 5867 5869 5871 5874 5876 5877 5880 5884 5886 5888 5890 5891 5894 5893 5894 5896 5896 5896 5897 5898 5897 5896 5896 5895 5895 5894 5893 5891 5890 5889 5889 5888 5886 5885 5883 5881 5878 5875 5870
5845 5848 5851 5854 5858 5859 5862 5865 5867 5871 5873 5875 5878 5880 5882 5883 5885 5886 5886 5886 5887 5888 5890 5891 5890 5890 5889 5888 5887 5886 5885 5883 5882 5882 5882 5880 5878 5875 5873 5871 5868 5865 5861
5838 5840 5841 5845 5847 5849 5852 5855 5858 5861 5864 5867 5869 5871 5873 5875 5876 5876 5877 5878 5878 5880 5881 5882 5882 5882 5881 5880 5879 5878 5877 5876 5875 5873 5872 5870 5868 5864 5862 5859 5856 5854 5851
5830 5833 5835 5836 5838 5840 5842 5844 5847 5851 5855 5857 5860 5862 5864 5865 5866 5868 5868 5869 5869 5871 5871 5871 5871 5872 5872 5871 5870 5869 5868 5867 5865 5863 5861 5858 5856 5854 5851 5848 5845 5843 5841
5821 5823 5826 5827 5830 5831 5833 5836 5839 5841 5844 5847 5850 5853 5855 5856 5857 5858 5859 5859 5860 5860 5861 5862 5862 5863 5862 5861 5860 5859 5857 5856 5854 5852 5849 5847 5845 5843 5840 5837 5835 5833 5830
5812 5814 5817 5819 5821 5823 5825 5827 5830 5832 5834 5837 5840 5843 5845 5845 5846 5847 5848 5849 5850 5851 5851 5851 5852 5851 5850 5849 5849 5847 5845 5844 5843 5841 5839 5836 5833 5830 5827 5826 5825 5823 5819
5802 5805 5808 5811 5814 5816 5818 5820 5822 5823 5826 5828 5831 5832 5833 5836 5837 5837 5836 5838 5839 5840 5840 5839 5838 5838 5838 5837 5835 5834 5832 5830 5829 5827 5826 5823 5821 5819 5818 5816 5815 5812 5809
5794 5797 5800 5802 5806 5808 5811 5812 5813 5815 5816 5817 5818 5821 5823 5825 5826 5827 5826 5824 5825 5826 5828 5829 5829 5827 5825 5825 5823 5821 5820 5818 5816 5815 5814 5813 5812 5811 5809 5807 5805 5802 5797
5786 5789 5791 5794 5797 5799 5802 5805 5806 5806 5807 5806 5808 5809 5812 5815 5816 5816 5817 5817 5816 5818 5818 5819 5818 5816 5815 5814 5813 5812 5811 5810 5809 5809 5809 5808 5806 5804 5801 5799 5796 5791 5786
5778 5781 5784 5787 5789 5791 5794 5796 5797 5798 5800 5801 5804 5803 5804 5807 5808 5807 5807 5807 5807 5807 5808 5808 5808 5807 5807 5805 5804 5804 5803 5803 5803 5803 5802 5800 5797 5794 5792 5788 5783 5779 5773
5771 5774 5777 5781 5783 5785 5787 5788 5790 5791 5793 5796 5796 5799 5800 5800 5801 5802 5801 5800 5801 5800 5800 5800 5800 5800 5800 5799 5798 5799 5799 5798 5797 5796 5794 5791 5787 5783 5780 5776 5772 5766 5761
5765 5767 5771 5774 5777 5779 5779 5780 5782 5783 5785 5786 5789 5793 5794 5795 5795 5795 5795 5795 5796 5796 5796 5796 5796 5796 5795 5794 5794 5793 5792 5791 5790 5787 5783 5780 5777 5775 5770 5765 5759 5753 5747
5756 5760 5764 5768 5770 5771 5771 5773 5776 5777 5779 5782 5784 5787 5789 5789 5789 5791 5792 5792 5791 5791 5792 5793 5793 5791 5790 5789 5788 5786 5785 5783 5781 5778 5775 5772 5768 5763 5757 5752 5745 5739 5732
5748 5755 5756 5759 5762 5763 5763 5768 5769 5772 5774 5777 5779 5781 5783 5784 5785 5786 5787 5788 5788 5788 5789 5788 5787 5786 5784 5783 5781 5779 5777 5775 5772 5769 5765 5761 5756 5751 5745 5738 5732 5724 5717
5742 5729 5747 5751 5755 5757 5760 5760 5761 5766 5769 5773 5775 5777 5779 5781 5782 5783 5783 5783 5783 5783 5782 5782 5781 5780 5778 5776 5775 5772 5769 5767 5764 5759 5754 5750 5744 5738 5732 5725 5718 5711 5704
5724 5735 5740 5745 5750 5752 5755 5757 5760 5763 5766 5770 5772 5774 5775 5776 5778 5779 5779 5779 5778 5778 5778 5777 5775 5773 5771 5770 5767 5764 5761 5757 5753 5748 5743 5738 5732 5725 5718 5712 5706 5698 5691
5725 5729 5735 5740 5746 5751 5753 5756 5758 5762 5764 5767 5769 5770 5772 5772 5772 5773 5773 5773 5772 5771 5770 5769 5767 5765 5763 5761 5758 5755 5751 5747 5743 5737 5731 5725 5718 5713 5707 5700 5693 5686 5679
5727 5731 5736 5741 5744 5749 5752 5755 5757 5760 5763 5764 5765 5766 5767 5767 5767 5767 5767 5766 5765 5764 5763 5760 5758 5756 5754 5752 5748 5745 5740 5735 5729 5722 5717 5712 5707 5701 5695 5688 5682 5676 5671